�N����,����,�~����,�C��,���x,�C��,����,���ϕ���,�ő�u�ԕ���,�ő厞����,���˗�,�I�_���x,�n�����x,�ő啗���N��,DTYPE
"23/04/30","00:10",0.2,17.1,95.9,1001.5,283.8,0.8,1.6,315.8,0.00,16.5,16.4,"00:00:52",1
"23/04/30","00:20",0.4,17.1,96.0,1001.9,290.7,0.8,1.4,265.7,0.00,16.5,16.3,"00:19:58",1
"23/04/30","00:30",0.2,17.1,96.1,1001.5,293.7,1.0,1.8,317.0,0.00,16.5,16.2,"00:23:24",1
"23/04/30","00:40",0.4,17.1,96.2,1001.5,281.7,1.2,2.4,262.1,0.00,16.5,16.3,"00:39:36",1
"23/04/30","00:50",0.2,17.1,96.2,1001.0,313.6,1.0,1.6,252.5,0.00,16.5,16.1,"00:45:32",1
"23/04/30","01:00",0.2,17.0,96.3,1000.8,325.2,0.7,1.6,340.3,0.00,16.4,16.5,"00:55:24",1
"23/04/30","01:10",0.4,17.0,96.5,1000.5,264.8,1.0,2.1,205.7,0.00,16.5,16.5,"01:07:00",1
"23/04/30","01:20",0.2,17.1,96.5,1000.3,309.3,0.8,1.6,335.9,0.00,16.6,16.4,"01:19:56",1
"23/04/30","01:30",0.4,17.0,96.5,1000.0,295.7,1.0,2.4,336.7,0.00,16.5,16.2,"01:21:08",1
"23/04/30","01:40",0.2,17.0,96.6,999.8,325.0,0.2,1.3,337.0,0.00,16.5,16.2,"01:30:02",1
"23/04/30","01:50",0.4,17.0,96.7,999.6,288.2,1.0,1.7,338.2,0.00,16.5,16.2,"01:43:28",1
"23/04/30","02:00",0.4,17.0,96.8,999.1,328.0,1.7,2.5,331.5,0.00,16.5,16.2,"01:58:06",1
"23/04/30","02:10",0.4,16.9,96.9,999.3,235.5,0.5,1.4,306.4,0.00,16.4,16.3,"02:00:14",1
"23/04/30","02:20",0.4,17.0,96.9,999.3,260.4,1.0,1.7,249.6,0.00,16.5,16.2,"02:17:38",1
"23/04/30","02:30",0.4,17.0,97.0,999.3,285.6,0.8,1.3,246.6,0.00,16.6,16.4,"02:20:40",1
"23/04/30","02:40",0.6,17.1,97.0,999.6,334.2,0.7,1.6,346.0,0.00,16.7,16.3,"02:33:38",1
"23/04/30","02:50",0.4,17.0,97.1,999.3,339.6,1.3,2.0,340.8,0.00,16.6,16.3,"02:45:34",1
"23/04/30","03:00",0.2,17.0,97.1,998.9,188.5,0.3,1.1,8.5,0.00,16.6,16.2,"02:50:32",1
"23/04/30","03:10",0.4,17.0,97.2,999.1,278.9,0.3,1.2,231.0,0.00,16.6,16.1,"03:09:06",1
"23/04/30","03:20",0.4,17.1,97.2,998.6,287.6,1.0,1.4,311.7,0.00,16.7,16.1,"03:16:34",1
"23/04/30","03:30",0.4,17.1,97.2,997.9,322.8,0.6,1.2,335.7,0.00,16.7,16.4,"03:27:12",1
"23/04/30","03:40",0.2,17.1,97.3,997.9,326.0,0.7,2.0,326.9,0.00,16.7,16.2,"03:38:16",1
"23/04/30","03:50",0.4,17.0,97.3,997.7,292.5,1.0,2.1,323.5,0.00,16.6,16.2,"03:40:40",1
"23/04/30","04:00",0.4,17.0,97.4,997.4,249.8,0.5,0.9,264.8,0.00,16.6,16.1,"03:55:58",1
"23/04/30","04:10",0.2,17.1,97.4,997.2,262.4,1.0,1.6,245.7,0.00,16.7,16.2,"04:05:06",1
"23/04/30","04:20",0.4,17.2,97.4,997.2,310.7,0.6,1.1,246.0,0.00,16.8,16.1,"04:10:26",1
"23/04/30","04:30",0.2,17.2,97.5,997.4,327.8,1.0,1.8,337.7,0.00,16.8,16.2,"04:25:12",1
"23/04/30","04:40",0.4,17.1,97.5,997.4,330.1,0.2,0.6,333.7,0.00,16.7,16.4,"04:30:16",1
"23/04/30","04:50",0.2,17.2,97.6,997.2,327.4,1.1,1.9,317.7,0.00,16.9,16.2,"04:47:36",1
"23/04/30","05:00",0.4,17.1,97.6,997.2,249.3,0.6,1.0,203.9,0.00,16.8,16.3,"04:55:20",1
"23/04/30","05:10",0.2,17.2,97.6,997.0,303.9,0.3,1.1,341.5,0.00,16.9,16.2,"05:09:52",1
"23/04/30","05:20",0.2,17.1,97.6,997.4,284.1,0.6,1.3,357.7,0.00,16.8,16.3,"05:10:32",1
"23/04/30","05:30",0.4,17.3,97.7,998.2,166.9,1.0,2.4,201.2,0.00,17.0,16.1,"05:28:32",1
"23/04/30","05:40",0.2,17.4,97.7,998.2,162.9,1.6,2.9,176.1,0.00,17.1,16.1,"05:32:40",1
"23/04/30","05:50",0.2,17.4,97.8,998.2,29.5,1.0,1.9,351.5,0.00,17.1,16.3,"05:44:58",1
"23/04/30","06:00",0.2,17.4,97.8,998.4,353.7,0.6,1.9,14.0,0.00,17.1,16.3,"05:52:56",1
"23/04/30","06:10",0.4,17.4,97.8,998.4,145.4,0.6,1.0,189.3,0.00,17.1,16.3,"06:02:32",1
"23/04/30","06:20",0.2,17.5,97.8,998.6,72.7,0.6,1.3,115.5,0.00,17.2,16.2,"06:15:12",1
"23/04/30","06:30",0.2,17.5,97.9,998.6,349.1,0.7,1.7,6.2,0.00,17.2,16.3,"06:20:24",1
"23/04/30","06:40",0.2,17.5,97.9,999.1,140.6,0.3,0.9,246.1,0.00,17.2,16.2,"06:39:52",1
"23/04/30","06:50",0.2,17.6,97.9,999.1,109.0,0.5,1.2,85.7,0.00,17.3,16.2,"06:48:16",1
"23/04/30","07:00",0.4,17.7,97.9,999.1,8.8,0.6,1.8,59.3,0.00,17.4,16.1,"06:58:56",1
"23/04/30","07:10",0.2,17.7,97.9,999.3,108.1,0.3,1.0,118.3,0.00,17.4,16.2,"07:00:08",1
"23/04/30","07:20",0.2,17.9,97.9,999.6,26.7,0.6,0.9,356.6,0.00,17.6,16.3,"07:17:04",1
"23/04/30","07:30",0.2,18.0,98.0,999.8,244.5,0.7,1.6,198.3,0.00,17.7,16.2,"07:29:44",1
"23/04/30","07:40",0.2,18.1,97.4,999.8,248.7,0.7,1.3,242.6,0.00,17.7,16.2,"07:30:40",1
"23/04/30","07:50",0.0,18.0,97.9,1000.3,262.2,0.3,1.4,307.6,0.00,17.7,16.3,"07:45:44",1
"23/04/30","08:00",0.2,17.9,97.9,1000.3,252.7,0.8,1.9,240.2,0.00,17.6,16.2,"07:57:52",1
"23/04/30","08:10",0.2,18.1,98.0,1000.8,308.0,0.8,1.4,168.9,0.00,17.8,16.2,"08:00:48",1
"23/04/30","08:20",0.2,18.2,97.5,1000.8,342.0,0.6,1.6,345.6,0.02,17.8,16.2,"08:11:52",1
"23/04/30","08:30",0.2,18.2,97.9,1000.8,299.8,0.7,1.1,261.5,0.00,17.9,16.3,"08:21:44",1
"23/04/30","08:40",0.2,18.1,98.0,1001.5,290.6,0.6,1.9,341.5,0.02,17.8,16.2,"08:35:44",1
"23/04/30","08:50",0.2,18.2,97.5,1001.5,310.1,0.6,1.2,332.1,0.02,17.8,16.2,"08:46:00",1
"23/04/30","09:00",0.0,18.2,98.0,1001.5,62.2,0.2,0.8,337.2,0.05,17.9,16.2,"08:50:32",1
"23/04/30","09:10",0.2,18.8,97.5,1001.7,30.8,0.1,0.9,114.6,0.10,18.4,16.1,"09:00:24",1
"23/04/30","09:20",0.2,18.7,98.0,1001.2,292.7,0.6,1.2,315.9,0.14,18.4,16.2,"09:11:52",1
"23/04/30","09:30",0.0,18.7,97.4,1001.5,258.4,0.7,1.2,254.7,0.18,18.3,16.4,"09:28:40",1
"23/04/30","09:40",0.2,18.5,98.1,1001.7,309.9,1.5,2.8,324.0,0.19,18.2,16.1,"09:36:24",1
"23/04/30","09:50",0.2,18.6,97.6,1001.5,321.6,1.8,3.4,335.1,0.25,18.3,16.2,"09:41:52",1
"23/04/30","10:00",0.2,18.9,98.1,1001.7,298.8,1.2,2.1,235.5,0.18,18.6,16.2,"09:50:08",1
"23/04/30","10:10",0.0,18.1,97.5,1002.2,306.8,1.8,2.6,319.5,0.12,17.7,16.3,"10:02:40",1
"23/04/30","10:20",0.2,18.9,98.1,1001.9,316.2,0.7,1.7,340.3,0.15,18.6,16.3,"10:15:04",1
"23/04/30","10:30",0.0,18.6,97.5,1002.4,308.2,1.5,3.1,320.8,0.15,18.2,16.2,"10:25:52",1
"23/04/30","10:40",0.2,18.2,97.7,1002.4,328.9,2.2,3.4,345.2,0.14,17.9,16.4,"10:31:52",1
"23/04/30","10:50",0.2,18.0,97.4,1002.2,343.3,2.1,3.9,334.1,0.26,17.6,16.2,"10:46:24",1
"23/04/30","11:00",0.0,18.4,97.0,1002.4,317.4,2.1,3.6,327.1,0.39,18.0,16.5,"10:58:32",1
"23/04/30","11:10",0.2,18.6,96.2,1002.4,330.4,2.6,4.8,344.6,0.41,18.0,16.5,"11:06:48",1
"23/04/30","11:20",0.0,18.8,96.0,1002.9,338.2,2.5,4.8,336.6,0.28,18.2,16.4,"11:11:52",1
"23/04/30","11:30",0.2,18.8,95.0,1002.6,322.9,2.2,4.0,342.4,0.24,18.0,16.5,"11:20:24",1
"23/04/30","11:40",0.0,19.1,94.7,1002.9,330.1,2.2,3.9,337.9,0.24,18.3,16.5,"11:31:12",1
"23/04/30","11:50",0.2,19.4,92.9,1002.9,336.4,3.1,5.2,340.0,0.29,18.3,16.3,"11:49:36",1
"23/04/30","12:00",0.0,19.3,91.1,1002.9,336.1,3.5,5.8,354.0,0.19,17.9,16.5,"11:52:48",1
"23/04/30","12:10",0.2,20.0,88.4,1002.9,332.1,3.0,5.2,347.0,0.26,18.1,16.7,"12:00:32",1
"23/04/30","12:20",0.0,20.5,84.6,1002.6,342.7,2.1,3.7,321.4,0.22,17.9,16.5,"12:19:20",1
"23/04/30","12:30",0.2,20.5,81.8,1002.4,344.7,2.6,4.9,337.2,0.22,17.3,16.8,"12:28:16",1
"23/04/30","12:40",0.0,20.9,80.5,1002.2,334.6,2.8,5.4,344.0,0.31,17.5,16.7,"12:37:36",1
"23/04/30","12:50",0.0,20.8,77.9,1001.9,331.1,2.2,4.1,339.7,0.27,16.8,16.6,"12:40:48",1
"23/04/30","13:00",0.2,21.3,76.6,1002.2,344.4,1.5,3.4,342.2,0.23,17.1,16.6,"12:54:24",1
"23/04/30","13:10",0.0,21.5,76.3,1001.9,348.8,1.7,3.4,348.9,0.23,17.2,16.8,"13:02:00",1
"23/04/30","13:20",0.2,21.9,75.4,1002.2,26.7,1.2,2.6,323.5,0.24,17.4,16.8,"13:13:04",1
"23/04/30","13:30",0.0,20.9,76.9,1001.5,87.0,1.5,4.1,113.9,0.13,16.7,16.8,"13:25:04",1
"23/04/30","13:40",0.0,20.1,79.0,1001.9,101.9,2.0,4.9,107.8,0.17,16.4,16.9,"13:34:16",1
"23/04/30","13:50",0.2,20.0,79.7,1001.9,91.8,1.6,3.1,90.1,0.17,16.4,17.0,"13:41:04",1
"23/04/30","14:00",0.0,19.7,79.2,1002.2,105.7,2.8,5.4,111.2,0.16,16.0,16.8,"13:55:36",1
"23/04/30","14:10",0.0,19.9,79.2,1002.2,48.6,1.5,3.4,23.3,0.11,16.2,16.8,"14:07:04",1
"23/04/30","14:20",0.2,19.5,79.7,1002.4,90.1,1.8,3.3,116.4,0.12,15.9,16.9,"14:15:36",1
"23/04/30","14:30",0.0,19.8,79.8,1002.2,48.3,1.2,3.4,116.5,0.21,16.3,16.8,"14:24:08",1
"23/04/30","14:40",0.0,19.4,79.1,1002.4,83.1,1.6,4.9,117.2,0.13,15.7,16.9,"14:31:12",1
"23/04/30","14:50",0.2,19.0,79.1,1002.4,92.9,1.5,4.0,120.7,0.10,15.3,17.1,"14:42:24",1
"23/04/30","15:00",0.0,18.8,79.5,1002.6,52.4,1.2,3.7,111.2,0.05,15.2,17.0,"14:53:04",1
"23/04/30","15:10",0.0,18.7,80.1,1002.9,105.4,1.3,3.2,113.6,0.09,15.2,17.1,"15:00:02",1
"23/04/30","15:20",0.2,18.6,80.1,1002.6,110.2,2.0,3.9,122.9,0.10,15.1,17.1,"15:13:12",1
"23/04/30","15:30",0.0,18.5,79.9,1002.9,94.1,1.5,2.9,115.8,0.10,15.0,17.1,"15:20:08",1
"23/04/30","15:40",0.0,18.2,79.6,1003.4,101.7,1.8,3.4,102.7,0.11,14.7,17.1,"15:31:36",1
"23/04/30","15:50",0.0,18.4,79.0,1003.1,105.0,1.6,3.3,119.2,0.12,14.7,17.2,"15:49:44",1
"23/04/30","16:00",0.2,18.4,78.7,1003.1,120.2,1.8,3.5,117.7,0.12,14.7,17.1,"15:51:20",1
"23/04/30","16:10",0.0,18.8,78.7,1003.1,133.1,1.8,3.4,117.2,0.18,15.1,17.4,"16:02:08",1
"23/04/30","16:20",0.0,19.1,77.3,1003.6,155.6,1.2,3.1,135.3,0.17,15.1,17.1,"16:11:44",1
"23/04/30","16:30",0.0,19.0,76.3,1003.4,161.5,1.3,2.7,136.4,0.14,14.8,17.2,"16:26:40",1
"23/04/30","16:40",0.0,19.7,75.8,1003.6,224.2,0.8,1.9,256.9,0.23,15.4,17.3,"16:33:44",1
"23/04/30","16:50",0.2,20.3,73.0,1003.6,230.2,1.3,2.4,221.4,0.27,15.3,17.4,"16:49:52",1
"23/04/30","17:00",0.0,20.4,71.7,1003.4,127.3,0.6,2.0,238.8,0.17,15.2,17.3,"16:50:32",1
"23/04/30","17:10",0.0,19.6,69.3,1003.6,99.3,1.3,2.4,74.5,0.12,13.9,17.2,"17:08:40",1
"23/04/30","17:20",0.0,20.0,67.7,1003.4,347.8,2.7,4.5,315.1,0.17,13.9,17.4,"17:17:20",1
"23/04/30","17:30",0.2,19.8,65.6,1004.1,342.9,3.1,6.2,335.2,0.16,13.2,17.3,"17:24:32",1
"23/04/30","17:40",0.0,19.9,66.4,1004.1,344.0,2.5,4.3,332.5,0.13,13.5,17.3,"17:37:28",1
"23/04/30","17:50",0.0,20.0,65.3,1004.3,350.8,2.2,4.2,338.3,0.15,13.3,17.2,"17:49:36",1
"23/04/30","18:00",0.0,19.9,64.7,1004.1,349.5,2.2,4.0,345.3,0.12,13.1,17.4,"17:59:36",1
"23/04/30","18:10",0.0,20.0,64.2,1004.3,351.2,2.1,4.0,343.6,0.11,13.1,17.3,"18:00:16",1
"23/04/30","18:20",0.2,19.4,62.3,1004.5,358.6,2.3,4.4,3.7,0.08,12.1,17.5,"18:13:36",1
"23/04/30","18:30",0.0,19.4,62.4,1004.3,350.5,2.0,3.5,347.9,0.05,12.1,17.4,"18:20:32",1
"23/04/30","18:40",0.0,19.1,62.1,1004.8,348.3,2.0,3.6,350.1,0.03,11.7,17.4,"18:32:56",1
"23/04/30","18:50",0.0,18.7,65.0,1004.8,344.5,1.7,3.6,347.6,0.02,12.0,17.4,"18:44:32",1
"23/04/30","19:00",0.0,18.0,67.0,1004.5,341.6,2.1,3.4,345.8,0.00,11.8,17.4,"18:52:40",1
"23/04/30","19:10",0.0,17.5,69.2,1005.2,336.6,1.6,2.4,337.3,0.00,11.8,17.3,"19:04:56",1
"23/04/30","19:20",0.2,16.7,72.3,1004.8,329.7,1.8,2.4,331.9,0.00,11.7,17.5,"19:10:32",1
"23/04/30","19:30",0.0,16.0,74.7,1004.8,332.2,1.6,2.6,330.8,0.00,11.6,17.6,"19:25:54",1
"23/04/30","19:40",0.0,15.4,77.6,1005.7,328.8,2.6,4.2,340.4,0.00,11.5,17.3,"19:35:52",1
"23/04/30","19:50",0.0,15.0,80.1,1005.2,331.7,2.2,4.0,320.5,0.00,11.6,17.2,"19:40:24",1
"23/04/30","20:00",0.0,14.6,81.4,1006.0,309.5,1.5,2.1,332.8,0.00,11.5,17.2,"19:59:44",1
"23/04/30","20:10",0.0,14.4,82.2,1006.0,315.0,2.2,3.4,325.0,0.00,11.4,17.3,"20:06:40",1
"23/04/30","20:20",0.0,14.1,82.6,1006.2,322.7,2.0,3.3,327.1,0.00,11.2,17.0,"20:16:48",1
"23/04/30","20:30",0.2,14.0,82.1,1006.0,316.1,2.7,4.1,318.9,0.00,11.0,17.1,"20:26:08",1
"23/04/30","20:40",0.0,13.9,81.2,1006.4,310.5,3.0,5.0,327.2,0.00,10.8,17.1,"20:33:14",1
"23/04/30","20:50",0.0,13.8,79.6,1006.7,311.7,3.4,5.0,317.5,0.00,10.4,17.2,"20:41:12",1
"23/04/30","21:00",0.0,13.8,77.4,1006.9,312.5,3.5,4.7,309.3,0.00,10.0,17.1,"20:50:08",1
"23/04/30","21:10",0.0,13.6,76.1,1006.9,305.4,2.7,3.9,321.0,0.00,9.5,17.1,"21:00:48",1
"23/04/30","21:20",0.0,13.4,76.4,1006.9,314.5,3.0,4.0,322.8,0.00,9.4,17.1,"21:17:34",1
"23/04/30","21:30",0.0,13.3,76.1,1007.1,313.3,3.7,5.4,315.9,0.00,9.2,16.8,"21:28:40",1
"23/04/30","21:40",0.0,13.0,76.0,1006.9,320.4,3.9,5.2,332.2,0.00,8.9,16.8,"21:32:50",1
"23/04/30","21:50",0.2,12.8,76.0,1007.1,299.5,2.7,3.3,311.9,0.00,8.7,16.9,"21:45:12",1
"23/04/30","22:00",0.0,12.5,76.4,1007.1,275.2,1.7,2.5,256.9,0.00,8.5,16.7,"21:57:08",1
"23/04/30","22:10",0.0,12.1,77.2,1007.4,277.9,1.5,1.8,266.4,0.00,8.3,16.8,"22:00:22",1
"23/04/30","22:20",0.0,11.9,78.3,1007.4,291.7,2.0,2.5,312.1,0.00,8.3,16.6,"22:17:36",1
"23/04/30","22:30",0.0,11.7,79.4,1007.4,316.6,2.0,2.5,323.6,0.00,8.3,16.7,"22:26:40",1
"23/04/30","22:40",0.0,11.5,81.1,1007.1,304.6,2.2,2.7,325.8,0.00,8.4,16.4,"22:31:46",1
"23/04/30","22:50",0.0,11.1,82.6,1007.6,306.4,2.5,2.9,307.8,0.00,8.3,16.3,"22:46:56",1
"23/04/30","23:00",0.0,10.9,83.6,1007.4,309.2,2.1,2.9,327.8,0.00,8.3,16.5,"22:59:20",1
"23/04/30","23:10",0.0,10.6,84.6,1006.9,327.0,2.5,3.2,322.3,0.00,8.2,16.5,"23:03:52",1
"23/04/30","23:20",0.0,10.4,85.5,1007.1,310.5,2.3,3.2,321.9,0.00,8.1,16.5,"23:12:48",1
"23/04/30","23:30",0.0,10.2,86.3,1006.9,301.0,2.1,3.1,316.1,0.00,8.1,16.4,"23:29:12",1
"23/04/30","23:40",0.2,10.4,86.7,1006.7,304.2,2.7,3.5,307.5,0.00,8.3,16.3,"23:37:28",1
"23/04/30","23:50",0.0,10.5,86.9,1007.4,301.1,2.5,3.5,312.3,0.00,8.5,16.2,"23:41:20",1
"23/04/30","24:00",0.0,10.5,87.2,1007.1,305.6,2.5,3.5,294.5,0.00,8.5,16.1,"23:52:56",1
